Zurück zum Katalog

CZ-6A DEB

AktivSSO
NORAD 54928·DEBRIS·🇨🇳 China

Gestartet Nov 11, 2022 von Taiyuan Satellite Launch Center

Loading…

Nächste Überflüge (nächste 24 Stunden)

TLE

AktuellSource: Space-Track

Epoche: Sep 14, 2026, 00:47 UTC

1 54928U 22151RR  26257.03302742  .00001553  00000-0  48352-3 0  9991
2 54928  98.6160 288.9223 0059680 104.2119 256.5709 14.41331733200646

Verfolge CZ-6A DEB in Echtzeit mit AllMySat

Download on the App Store